Showing default

PISAT, 41784

Orbit data source: Space-Track

PISAT, 41784 is a payload satellite owned by PES Univ. (IN) in SSO that was launched on Mon, 26 Sep 2016 UTC via a PSLV launch vehicle from the Sirharikota (SRI). Payload-class satellites include a variety of spacecraft equipped with specific instruments for various scientific and technological missions. These include communications satellites like Starlink; space stations such as the ISS; scientific satellites like the Hubble; Earth observation satellites from companies like Planet Labs, Umbra, and HawkEye 360; GPS; miniature CubeSats for education and research; and military/defense satellites.

Loading next visibility...
Identifier
41784, 2016-059B
Orbit
SSO
Country
Flag of ININ / IND
Related business
Manufacturer
PES Univ.
Mission
Operational Amateur Imaging
Bus & Motor
PISAT, Unknown motor
Mass
5.25 kg wet, 5.25 kg dry
Launch date (UTC)
2016-09-26 (10 years ago)
Launch vehicle
PSLV
Launch site
Sirharikota (SRI)
Object type
Payload
Rocket body
Debris
Shape & HBR
Box, 0.1 m
Radar Cross Section
0.063 m², Medium (>0.1 m² and < 1m²)

Expand to show TLE details & history
Last TLE update: 2 days ago

TLE from 2 days ago
0 PISAT
1 41784U 16059B   26171.41355948  .00000622  00000-0  11350-3 0  9994
2 41784  97.8178 171.7277 0028650 192.2677 167.7834 14.68987845520219
Epoch: 2026-06-20T09:55Z
TLE epoch observation values (Epoch: 2026-06-20T09:55:31.539Z)
Latitude
-0.00009°
Longitude
114.21776°
Altitude
687.036 km
Speed
7.502 km/s
True Right ascension
11h 26m 54s
True Declination
0° 00' 00"
Sunlit
Object was in daylight at epoch
Visualization orbit readout
Latitude
Unknown
Longitude
Unknown
Altitude
Unknown
Speed
Unknown
Apparent Right ascension
Unknown
Apparent Declination
Unknown
Sunlit
N/A
Visualization observer readout
Local Sidereal Time
21:37:17
Azimuth
Unknown
Elevation
Unknown
Doppler factor
Unknown
Orbital elements
Apogee altitude
681.521 km
Perigee altitude
641.185 km
Semi-major axis
7,039.49 km
Eccentricity
0.00287
Inclination
97.8178°
RAAN
171.7277°
Arg. of periapsis
192.2677°
True anomaly
167.85263°
Mean anomaly
167.7834°
Eccentric anomaly
167.81804°
Mean motion
3.67478 °/min
Orbital period
97.97 mins
BSTAR
0.0001135
Loading maneuver chart data...
Computing Atmospheric mass density...
Loading historical data...
Loading historical data...
Loading historical data...
Loading historical data...
Loading historical data...
Loading historical data...
Loading historical data...

Documentation

Showing up to 5 results
|